VK3ANZ Weather Reports


Display with metric or nautical units.
time (UTC)temp
F
wind
direction
speed
MPH
gust
MPH
rain 1hr
in
rain 24hr
in
rain mn
in
humidity
%
barometer
mb
20260504033529 66 353 2.0 12.0 0.00 0.00 0.00 22 1011.6
20260504032521 66 355 5.0 20.0 0.00 0.00 0.00 22 1011.6
20260504031517 65 340 2.0 15.0 0.00 0.00 0.00 21 1011.7
20260504030541 65 21 5.0 17.0 0.00 0.00 0.00 22 1011.7
20260504025529 65 3 3.0 15.0 0.00 0.00 0.00 22 1011.9
20260504024622 64 21 4.0 17.0 0.00 0.00 0.00 22 1011.8
20260504023529 64 1 5.0 17.0 0.00 0.00 0.00 22 1012.1
20260504022521 64 5 5.0 15.0 0.00 0.00 0.00 20 1012.2
20260504021529 64 3 7.0 20.0 0.00 0.00 0.00 20 1012.4
20260504020523 64 311 2.0 12.0 0.00 0.00 0.00 22 1012.4
20260504015550 63 25 2.0 12.0 0.00 0.00 0.00 23 1012.4
20260504014521 63 359 7.0 15.0 0.00 0.00 0.00 21 1012.7
20260504013530 63 1 5.0 22.0 0.00 0.00 0.00 22 1012.5
20260504012521 62 1 6.0 20.0 0.00 0.00 0.00 22 1012.7
20260504011529 62 36 4.0 15.0 0.00 0.00 0.00 23 1012.8
20260504010608 63 6 5.0 17.0 0.00 0.00 0.00 25 1012.8
20260504005529 63 8 7.0 20.0 0.00 0.00 0.00 24 1012.9
20260504004520 62 16 6.0 15.0 0.00 0.00 0.00 25 1012.9
20260504003529 62 353 4.0 17.0 0.00 0.00 0.00 25 1012.7
20260504002521 62 22 8.0 20.0 0.00 0.00 0.00 26 1012.8
20260504001530 62 3 4.0 22.0 0.00 0.00 0.00 26 1012.9
20260504000541 62 3 2.0 20.0 0.00 0.00 0.00 27 1012.9
20260503235529 61 24 1.0 12.0 0.00 0.00 0.00 29 1013.1
20260503234521 61 360 3.0 15.0 0.00 0.00 0.00 29 1013.1
20260503233529 61 6 6.0 17.0 0.00 0.00 0.00 29 1013.2
20260503232520 61 3 1.0 12.0 0.00 0.00 0.00 29 1013.2
20260503231529 60 13 5.0 17.0 0.00 0.00 0.00 29 1013.1
20260503230521 60 1 6.0 15.0 0.00 0.00 0.00 29 1013.3
20260503225529 59 358 2.0 7.0 0.00 0.00 0.00 30 1013.3
20260503224521 58 11 4.0 12.0 0.00 0.00 0.00 31 1013.2
20260503223528 57 360 2.0 10.0 0.00 0.00 0.00 32 1013.1
20260503222521 56 19 2.0 7.0 0.00 0.00 0.00 34 1013.0
20260503221522 55 34 2.0 7.0 0.00 0.00 0.00 36 1013.2
20260503220521 55 17 1.0 10.0 0.00 0.00 0.00 36 1013.3
20260503215526 55 18 2.0 7.0 0.00 0.00 0.00 36 1013.2
20260503214520 55 18 1.0 5.0 0.00 0.00 0.00 37 1013.1
20260503213529 55 16 1.0 5.0 0.00 0.00 0.00 37 1013.2
20260503212521 55 31 3.0 10.0 0.00 0.00 0.00 38 1013.0
20260503211529 55 25 2.0 5.0 0.00 0.00 0.00 38 1013.0
20260503210541 55 28 2.0 7.0 0.00 0.00 0.00 38 1013.1
20260503205525 55 21 1.0 7.0 0.00 0.00 0.00 38 1013.1
20260503204521 54 18 2.0 7.0 0.00 0.00 0.00 39 1013.0
20260503203549 54 19 2.0 10.0 0.00 0.00 0.00 40 1012.8
20260503202520 54 27 2.0 7.0 0.00 0.00 0.00 42 1012.8
20260503201528 54 14 1.0 5.0 0.00 0.00 0.00 45 1012.8
20260503200521 54 0.0 0.0 0.00 0.00 0.00 49 1012.8
20260503195528 53 15 1.0 5.0 0.00 0.00 0.00 51 1012.8
20260503194539 53 350 0.0 5.0 0.00 0.00 0.00 54 1012.9
20260503193528 53 34 1.0 7.0 0.00 0.00 0.00 60 1012.8
20260503192521 52 33 0.0 2.0 0.00 0.00 0.00 72 1012.9
20260503191529 52 360 1.0 5.0 0.00 0.00 0.00 77 1013.0
20260503190520 51 41 0.0 5.0 0.00 0.00 0.00 79 1012.9
20260503185549 51 0.0 0.0 0.00 0.00 0.00 79 1013.3
20260503184546 51 0.0 0.0 0.00 0.00 0.00 80 1013.2
20260503183530 50 0.0 0.0 0.00 0.00 0.00 77 1013.3
20260503182520 50 0.0 0.0 0.00 0.00 0.00 77 1013.3
20260503181529 50 0.0 0.0 0.00 0.00 0.00 79 1013.4
20260503180520 50 0.0 0.0 0.00 0.00 0.00 77 1013.4
20260503175529 50 0.0 0.0 0.00 0.00 0.00 72 1013.6
20260503174521 51 0.0 0.0 0.00 0.00 0.00 71 1013.6
20260503173529 51 0.0 0.0 0.00 0.00 0.00 70 1013.7
20260503172520 51 0.0 0.0 0.00 0.00 0.00 64 1013.7
20260503171522 52 0.0 0.0 0.00 0.00 0.00 57 1013.7
20260503170522 52 0.0 0.0 0.00 0.00 0.00 51 1013.6
20260503150601 53 2 1.0 5.0 0.00 0.00 0.00 49 1014.0
20260503130520 55 0.0 0.0 0.00 0.00 0.00 43 1014.5
20260503110517 56 0.0 0.0 0.00 0.00 0.00 38 1014.4
20260503081518 58 0.0 0.0 0.00 0.00 0.00 37 1012.9
20260503080519 58 355 1.0 7.0 0.00 0.00 0.00 39 1012.8
20260503072519 61 356 0.0 2.0 0.00 0.00 0.00 39 1012.7
20260503071547 62 31 1.0 5.0 0.00 0.00 0.00 39 1012.7
20260503070527 62 30 0.0 5.0 0.00 0.00 0.00 40 1012.5
20260503054517 61 339 0.0 5.0 0.00 0.00 0.00 51 1012.1
20260503053608 62 321 0.0 2.0 0.00 0.00 0.00 50 1012.1
20260503052559 63 275 1.0 2.0 0.00 0.00 0.00 49 1012.2
20260503051522 64 295 2.0 10.0 0.00 0.00 0.00 49 1012.1
20260503050529 64 1 1.0 5.0 0.00 0.00 0.00 52 1011.6
20260503045546 64 5 0.0 5.0 0.00 0.00 0.00 52 1011.5
20260503044519 64 325 1.0 7.0 0.00 0.00 0.00 55 1011.5
20260503043526 65 9 2.0 7.0 0.00 0.00 0.00 59 1011.5
20260503042516 65 16 1.0 5.0 0.00 0.00 0.00 64 1011.5
20260503041526 64 10 1.0 5.0 0.00 0.00 0.00 70 1011.5
20260503040519 64 39 2.0 7.0 0.00 0.00 0.00 72 1011.5
20260503035519 64 17 1.0 5.0 0.00 0.00 0.00 74 1011.7
20260503034519 63 34 2.0 7.0 0.00 0.00 0.00 75 1011.8